ARG1886 SABE-SAWH

Flight info

Callsign ARG1886
Flight time 3h 19m
Altitude 36000
Route PAL9 GBE UP664 DIL UT662 SUSDA/N0453F380 UT662 ASKAS UT704 DABLI DABLI1Q
Aircraft B738/M-SDE2E3FGHIRWXY/LB1

Departure

Time 2026-05-08 15:07
Airport Aeroparque Jorge Newbery (SABE)

Arrival

Time 2026-05-08 18:26
Airport Ushuaia - Malvinas Argentinas International Airport (SAWH)
Time Latitude Longitude Altitude Speed Heading
2026-05-08 14:47 -34.55824 -58.41405 26 ft 0 kts 208°
2026-05-08 15:00 -34.55809 -58.41395 31 ft 4 kts 217°
2026-05-08 15:00 -34.55793 -58.41373 31 ft 4 kts 264°
2026-05-08 15:01 -34.55799 -58.41349 27 ft 4 kts 302°
2026-05-08 15:01 -34.55806 -58.41334 31 ft 0 kts 302°
2026-05-08 15:03 -34.55805 -58.41336 29 ft 3 kts 302°
2026-05-08 15:03 -34.55779 -58.41386 29 ft 13 kts 303°
2026-05-08 15:03 -34.55725 -58.41502 28 ft 16 kts 288°
2026-05-08 15:03 -34.55787 -58.41585 26 ft 12 kts 181°
2026-05-08 15:04 -34.55844 -58.41490 28 ft 20 kts 116°
2026-05-08 15:04 -34.55924 -58.41304 28 ft 28 kts 117°
2026-05-08 15:04 -34.56034 -58.41115 27 ft 26 kts 126°
2026-05-08 15:04 -34.56140 -58.40948 26 ft 24 kts 129°
2026-05-08 15:05 -34.56199 -58.40770 29 ft 23 kts 124°
2026-05-08 15:05 -34.56287 -58.40611 27 ft 22 kts 124°
2026-05-08 15:05 -34.56384 -58.40474 26 ft 22 kts 140°
2026-05-08 15:05 -34.56486 -58.40370 26 ft 15 kts 146°
2026-05-08 15:06 -34.56558 -58.40411 26 ft 12 kts 254°
2026-05-08 15:06 -34.56514 -58.40514 26 ft 27 kts 304°
2026-05-08 15:06 -34.56257 -58.40976 27 ft 103 kts 303°
2026-05-08 15:06 -34.55737 -58.41908 109 ft 155 kts 302°
2026-05-08 15:07 -34.55150 -58.42958 1053 ft 145 kts 298°
2026-05-08 15:07 -34.54364 -58.43826 1788 ft 165 kts 328°
2026-05-08 15:07 -34.53165 -58.44123 2390 ft 194 kts 347°
2026-05-08 15:07 -34.51723 -58.43794 2728 ft 233 kts 23°
2026-05-08 15:08 -34.50461 -58.42370 2981 ft 264 kts 61°
2026-05-08 15:08 -34.50053 -58.40215 3432 ft 270 kts 98°
2026-05-08 15:08 -34.50398 -58.37935 3932 ft 280 kts 110°
2026-05-08 15:08 -34.50953 -58.35650 4740 ft 285 kts 111°
2026-05-08 15:09 -34.51535 -58.33336 5593 ft 289 kts 110°
2026-05-08 15:09 -34.52108 -58.30979 6420 ft 294 kts 110°
2026-05-08 15:09 -34.52673 -58.28585 7290 ft 294 kts 109°
2026-05-08 15:09 -34.53235 -58.26184 8175 ft 295 kts 110°
2026-05-08 15:10 -34.54178 -58.24009 8919 ft 291 kts 139°
2026-05-08 15:10 -34.55782 -58.22554 9743 ft 288 kts 153°
2026-05-08 15:10 -34.57505 -58.21221 10229 ft 304 kts 152°
2026-05-08 15:10 -34.59365 -58.19805 10407 ft 328 kts 152°
2026-05-08 15:11 -34.61354 -58.18285 10780 ft 344 kts 152°
2026-05-08 15:11 -34.63394 -58.16711 11452 ft 349 kts 151°
2026-05-08 15:11 -34.65440 -58.15114 12262 ft 351 kts 150°
2026-05-08 15:11 -34.67499 -58.13499 13054 ft 354 kts 150°
2026-05-08 15:12 -34.69575 -58.11875 13784 ft 356 kts 150°
2026-05-08 15:12 -34.71675 -58.10232 14359 ft 362 kts 151°
2026-05-08 15:12 -34.73816 -58.08564 14899 ft 368 kts 153°
2026-05-08 15:12 -34.76192 -58.07478 15432 ft 365 kts 177°
2026-05-08 15:13 -34.78652 -58.07701 16027 ft 361 kts 199°
2026-05-08 15:13 -34.81005 -58.08729 16715 ft 360 kts 204°
2026-05-08 15:13 -34.83387 -58.09747 17314 ft 366 kts 202°
2026-05-08 15:13 -34.85825 -58.10747 17832 ft 373 kts 201°
2026-05-08 15:14 -34.88304 -58.11749 18371 ft 376 kts 202°
2026-05-08 15:14 -34.90798 -58.12742 18922 ft 380 kts 200°
2026-05-08 15:14 -34.93333 -58.13742 19365 ft 386 kts 201°
2026-05-08 15:14 -34.95893 -58.14753 19965 ft 387 kts 201°
2026-05-08 15:15 -34.98464 -58.15769 20570 ft 389 kts 201°
2026-05-08 15:15 -35.01061 -58.16797 21032 ft 395 kts 201°
2026-05-08 15:15 -35.03684 -58.17840 21572 ft 398 kts 201°
2026-05-08 15:15 -35.06317 -58.18888 22130 ft 400 kts 201°
2026-05-08 15:16 -35.08971 -58.19944 22621 ft 403 kts 202°
2026-05-08 15:16 -35.11646 -58.21009 23194 ft 404 kts 201°
2026-05-08 15:16 -35.14320 -58.22074 23628 ft 406 kts 201°
2026-05-08 15:16 -35.17012 -58.23148 24020 ft 408 kts 201°
2026-05-08 15:17 -35.19720 -58.24229 24402 ft 411 kts 201°
2026-05-08 15:17 -35.22445 -58.25317 24778 ft 413 kts 201°
2026-05-08 15:17 -35.25189 -58.26414 25148 ft 416 kts 201°
2026-05-08 15:17 -35.27912 -58.27503 25524 ft 418 kts 201°
2026-05-08 15:18 -35.30677 -58.28610 25869 ft 420 kts 201°
2026-05-08 15:18 -35.33472 -58.29730 26222 ft 423 kts 201°
2026-05-08 15:18 -35.36271 -58.30851 26632 ft 424 kts 201°
2026-05-08 15:18 -35.39078 -58.31977 26997 ft 426 kts 201°
2026-05-08 15:19 -35.41910 -58.33113 27319 ft 429 kts 201°
2026-05-08 15:19 -35.44750 -58.34254 27644 ft 431 kts 201°
2026-05-08 15:19 -35.47607 -58.35403 27951 ft 434 kts 201°
2026-05-08 15:19 -35.50482 -58.36560 28293 ft 435 kts 201°
2026-05-08 15:20 -35.53369 -58.37722 28605 ft 438 kts 201°
2026-05-08 15:20 -35.56269 -58.38890 28860 ft 441 kts 201°
2026-05-08 15:20 -35.59189 -58.40068 29199 ft 442 kts 201°
2026-05-08 15:20 -35.62102 -58.41242 29670 ft 440 kts 201°
2026-05-08 15:21 -35.65001 -58.42412 30071 ft 438 kts 201°
2026-05-08 15:21 -35.67898 -58.43584 30352 ft 439 kts 202°
2026-05-08 15:21 -35.70807 -58.44761 30593 ft 440 kts 202°
2026-05-08 15:21 -35.73721 -58.45941 30871 ft 441 kts 202°
2026-05-08 15:22 -35.76619 -58.47185 31179 ft 439 kts 205°
2026-05-08 15:22 -35.79459 -58.48568 31532 ft 437 kts 206°
2026-05-08 15:22 -35.82264 -58.50011 31893 ft 436 kts 207°
2026-05-08 15:22 -35.85023 -58.51454 32201 ft 436 kts 207°
2026-05-08 15:23 -35.87810 -58.52913 32491 ft 436 kts 207°
2026-05-08 15:23 -35.90609 -58.54370 32741 ft 437 kts 207°
2026-05-08 15:23 -35.93415 -58.55821 32983 ft 438 kts 207°
2026-05-08 15:23 -35.96238 -58.57274 33256 ft 438 kts 207°
2026-05-08 15:24 -35.99055 -58.58719 33525 ft 439 kts 207°
2026-05-08 15:24 -36.01879 -58.60165 33762 ft 439 kts 207°
2026-05-08 15:24 -36.04706 -58.61613 33983 ft 440 kts 207°
2026-05-08 15:24 -36.07534 -58.63062 34226 ft 439 kts 207°
2026-05-08 15:25 -36.10350 -58.64506 34483 ft 438 kts 207°
2026-05-08 15:25 -36.13163 -58.65949 34729 ft 438 kts 207°
2026-05-08 15:25 -36.15980 -58.67397 34940 ft 438 kts 207°
2026-05-08 15:25 -36.18796 -58.68845 35121 ft 438 kts 207°
2026-05-08 15:26 -36.21577 -58.70277 35330 ft 438 kts 207°
2026-05-08 15:26 -36.24427 -58.71745 35533 ft 438 kts 207°
2026-05-08 15:26 -36.27207 -58.73179 35675 ft 439 kts 207°
2026-05-08 15:26 -36.30037 -58.74640 35657 ft 442 kts 207°
2026-05-08 15:27 -36.35694 -58.77561 35674 ft 437 kts 207°
2026-05-08 15:27 -36.41271 -58.80444 35673 ft 432 kts 207°
2026-05-08 15:28 -36.46799 -58.83308 35678 ft 429 kts 207°
2026-05-08 15:28 -36.52320 -58.86176 35694 ft 433 kts 207°
2026-05-08 15:29 -36.57928 -58.89097 35687 ft 439 kts 207°
2026-05-08 15:29 -36.63579 -58.92038 35674 ft 441 kts 207°
2026-05-08 15:30 -36.69244 -58.94991 35664 ft 441 kts 207°
2026-05-08 15:30 -36.74905 -58.97946 35668 ft 440 kts 207°
2026-05-08 15:31 -36.80536 -59.00891 35657 ft 438 kts 207°
2026-05-08 15:31 -36.86140 -59.03828 35674 ft 436 kts 207°
2026-05-08 15:32 -36.91722 -59.06757 35650 ft 434 kts 207°
2026-05-08 15:32 -36.97229 -59.09652 35627 ft 432 kts 207°
2026-05-08 15:33 -37.02759 -59.12564 35615 ft 430 kts 207°
2026-05-08 15:33 -37.08268 -59.15470 35621 ft 429 kts 207°
2026-05-08 15:34 -37.13764 -59.18374 35590 ft 428 kts 207°
2026-05-08 15:34 -37.19261 -59.21282 35582 ft 428 kts 207°
2026-05-08 15:35 -37.24799 -59.24029 35579 ft 430 kts 202°
2026-05-08 15:35 -37.30535 -59.26238 35640 ft 432 kts 201°
2026-05-08 15:36 -37.35328 -59.28013 35646 ft 432 kts 201°
2026-05-08 15:36 -37.42038 -59.30557 35631 ft 433 kts 201°
2026-05-08 15:37 -37.47795 -59.32781 35639 ft 434 kts 201°
2026-05-08 15:37 -37.53565 -59.35024 35627 ft 434 kts 201°
2026-05-08 15:38 -37.59332 -59.37271 35630 ft 434 kts 201°
2026-05-08 15:38 -37.65107 -59.39523 35632 ft 434 kts 201°
2026-05-08 15:39 -37.70882 -59.41778 35633 ft 433 kts 201°
2026-05-08 15:39 -37.76635 -59.44028 35624 ft 433 kts 201°
2026-05-08 15:40 -37.82387 -59.46283 35627 ft 432 kts 201°
2026-05-08 15:40 -37.88126 -59.48535 35618 ft 432 kts 201°
2026-05-08 15:41 -37.93862 -59.50789 35621 ft 431 kts 201°
2026-05-08 15:41 -37.99546 -59.53027 35623 ft 430 kts 201°
2026-05-08 15:42 -38.05252 -59.55278 35621 ft 429 kts 201°
2026-05-08 15:42 -38.10959 -59.57532 35612 ft 429 kts 201°
2026-05-08 15:43 -38.16655 -59.59786 35611 ft 429 kts 201°
2026-05-08 15:43 -38.22350 -59.62044 35616 ft 428 kts 200°
2026-05-08 15:44 -38.28034 -59.64300 35623 ft 428 kts 200°
2026-05-08 15:44 -38.33719 -59.66561 35610 ft 427 kts 200°
2026-05-08 15:45 -38.38434 -59.68442 35602 ft 427 kts 200°
2026-05-08 15:45 -38.44105 -59.70708 35598 ft 427 kts 200°
2026-05-08 15:46 -38.50678 -59.73339 35611 ft 426 kts 200°
2026-05-08 15:46 -38.55423 -59.75241 35610 ft 425 kts 200°
2026-05-08 15:47 -38.61032 -59.77493 35590 ft 425 kts 200°
2026-05-08 15:47 -38.66670 -59.79765 35580 ft 424 kts 200°
2026-05-08 15:48 -38.75123 -59.83165 35600 ft 422 kts 201°
2026-05-08 15:49 -38.80679 -59.85409 35583 ft 417 kts 200°
2026-05-08 15:49 -38.86180 -59.87635 35585 ft 414 kts 201°
2026-05-08 15:49 -38.88925 -59.88743 35785 ft 413 kts 199°
2026-05-08 15:50 -38.91659 -59.89852 36118 ft 409 kts 201°
2026-05-08 15:50 -38.94331 -59.90937 36350 ft 409 kts 200°
2026-05-08 15:50 -38.97046 -59.92037 36446 ft 411 kts 200°
2026-05-08 15:50 -38.99787 -59.93154 36588 ft 413 kts 200°
2026-05-08 15:51 -39.02532 -59.94273 36772 ft 412 kts 199°
2026-05-08 15:51 -39.05263 -59.95383 36989 ft 412 kts 200°
2026-05-08 15:51 -39.07990 -59.96497 37260 ft 409 kts 201°
2026-05-08 15:51 -39.10713 -59.97604 37383 ft 411 kts 201°
2026-05-08 15:52 -39.13446 -59.98717 37471 ft 412 kts 201°
2026-05-08 15:52 -39.18910 -60.00959 37583 ft 410 kts 201°
2026-05-08 15:53 -39.24374 -60.03186 37561 ft 415 kts 199°
2026-05-08 15:53 -39.29923 -60.05453 37573 ft 421 kts 201°
2026-05-08 15:54 -39.35535 -60.07757 37598 ft 425 kts 201°
2026-05-08 15:54 -39.41200 -60.10091 37591 ft 430 kts 200°
2026-05-08 15:55 -39.46952 -60.12459 37567 ft 434 kts 200°
2026-05-08 15:55 -39.55560 -60.16026 37572 ft 437 kts 200°
2026-05-08 15:56 -39.61336 -60.18410 37557 ft 434 kts 200°
2026-05-08 15:56 -39.67061 -60.20775 37577 ft 431 kts 200°
2026-05-08 15:57 -39.72762 -60.23140 37561 ft 429 kts 199°
2026-05-08 15:57 -39.78469 -60.25513 37557 ft 432 kts 200°
2026-05-08 15:58 -39.84228 -60.27916 37555 ft 437 kts 200°
2026-05-08 15:58 -39.90008 -60.30331 37577 ft 435 kts 200°
2026-05-08 15:59 -39.95729 -60.32722 37551 ft 431 kts 200°
2026-05-08 15:59 -40.01412 -60.35100 37561 ft 429 kts 199°
2026-05-08 16:00 -40.07127 -60.37500 37566 ft 433 kts 199°
2026-05-08 16:00 -40.12893 -60.39922 37570 ft 435 kts 200°
2026-05-08 16:01 -40.18632 -60.42338 37588 ft 430 kts 200°
2026-05-08 16:01 -40.24308 -60.44732 37571 ft 427 kts 200°
2026-05-08 16:02 -40.29948 -60.47117 37585 ft 429 kts 199°
2026-05-08 16:02 -40.35642 -60.49531 37557 ft 432 kts 199°
2026-05-08 16:03 -40.41389 -60.51967 37576 ft 434 kts 200°
2026-05-08 16:03 -40.47112 -60.54395 37568 ft 429 kts 199°
2026-05-08 16:04 -40.52747 -60.56720 37541 ft 422 kts 197°
2026-05-08 16:04 -40.58397 -60.58910 37587 ft 424 kts 198°
2026-05-08 16:05 -40.64077 -60.61117 37582 ft 430 kts 198°
2026-05-08 16:05 -40.69838 -60.63370 37583 ft 433 kts 198°
2026-05-08 16:06 -40.75612 -60.65640 37587 ft 433 kts 198°
2026-05-08 16:06 -40.81370 -60.67905 37590 ft 429 kts 198°
2026-05-08 16:07 -40.87054 -60.70150 37577 ft 426 kts 197°
2026-05-08 16:07 -40.92757 -60.72410 37586 ft 430 kts 197°
2026-05-08 16:08 -40.98502 -60.74689 37587 ft 436 kts 198°
2026-05-08 16:08 -41.04314 -60.77000 37587 ft 434 kts 197°
2026-05-08 16:09 -41.09154 -60.78923 37602 ft 430 kts 198°
2026-05-08 16:09 -41.15773 -60.81559 37592 ft 425 kts 198°
2026-05-08 16:10 -41.21467 -60.83836 37609 ft 429 kts 198°
2026-05-08 16:10 -41.27217 -60.86135 37572 ft 434 kts 197°
2026-05-08 16:11 -41.33030 -60.88467 37606 ft 437 kts 197°
2026-05-08 16:11 -41.38811 -60.90788 37600 ft 432 kts 197°
2026-05-08 16:12 -41.44533 -60.93089 37595 ft 426 kts 197°
2026-05-08 16:12 -41.50210 -60.95378 37585 ft 429 kts 197°
2026-05-08 16:13 -41.55951 -60.97699 37579 ft 434 kts 197°
2026-05-08 16:13 -41.61749 -61.00044 37615 ft 437 kts 197°
2026-05-08 16:14 -41.67545 -61.02394 37597 ft 438 kts 197°
2026-05-08 16:14 -41.73347 -61.04750 37610 ft 434 kts 197°
2026-05-08 16:15 -41.79082 -61.07083 37613 ft 429 kts 197°
2026-05-08 16:15 -41.84827 -61.09429 37627 ft 434 kts 197°
2026-05-08 16:16 -41.90635 -61.11801 37620 ft 439 kts 197°
2026-05-08 16:16 -41.96507 -61.14201 37632 ft 442 kts 197°
2026-05-08 16:17 -42.01363 -61.16191 37614 ft 438 kts 197°
2026-05-08 16:17 -42.08156 -61.18980 37631 ft 435 kts 197°
2026-05-08 16:18 -42.13935 -61.21359 37629 ft 434 kts 197°
2026-05-08 16:18 -42.19733 -61.23751 37626 ft 436 kts 197°
2026-05-08 16:19 -42.25557 -61.26156 37645 ft 441 kts 197°
2026-05-08 16:19 -42.31443 -61.28594 37657 ft 442 kts 197°
2026-05-08 16:20 -42.37296 -61.31021 37663 ft 438 kts 197°
2026-05-08 16:20 -42.43094 -61.33430 37645 ft 434 kts 197°
2026-05-08 16:21 -42.48835 -61.35820 37668 ft 436 kts 197°
2026-05-08 16:21 -42.54666 -61.38253 37672 ft 440 kts 197°
2026-05-08 16:22 -42.60551 -61.40714 37670 ft 444 kts 197°
2026-05-08 16:22 -42.66421 -61.43168 37658 ft 438 kts 197°
2026-05-08 16:23 -42.72234 -61.45612 37690 ft 437 kts 197°
2026-05-08 16:23 -42.78028 -61.48048 37664 ft 436 kts 197°
2026-05-08 16:24 -42.83841 -61.50502 37713 ft 440 kts 197°
2026-05-08 16:24 -42.89719 -61.52976 37697 ft 444 kts 197°
2026-05-08 16:25 -42.95623 -61.55477 37708 ft 442 kts 197°
2026-05-08 16:25 -43.01462 -61.57948 37713 ft 437 kts 197°
2026-05-08 16:26 -43.07273 -61.60418 37702 ft 437 kts 197°
2026-05-08 16:26 -43.13087 -61.62882 37700 ft 438 kts 197°
2026-05-08 16:27 -43.18914 -61.65364 37708 ft 440 kts 196°
2026-05-08 16:27 -43.24755 -61.67851 37727 ft 441 kts 197°
2026-05-08 16:28 -43.30585 -61.70349 37742 ft 440 kts 196°
2026-05-08 16:28 -43.36402 -61.72833 37737 ft 438 kts 196°
2026-05-08 16:29 -43.42199 -61.75331 37748 ft 434 kts 196°
2026-05-08 16:29 -43.47971 -61.77807 37742 ft 436 kts 197°
2026-05-08 16:30 -43.53772 -61.80312 37751 ft 439 kts 196°
2026-05-08 16:30 -43.59609 -61.82832 37767 ft 441 kts 197°
2026-05-08 16:31 -43.65474 -61.85378 37782 ft 442 kts 196°
2026-05-08 16:31 -43.71325 -61.87911 37785 ft 439 kts 196°
2026-05-08 16:32 -43.77090 -61.90422 37774 ft 430 kts 195°
2026-05-08 16:32 -43.81829 -61.92479 37802 ft 430 kts 196°
2026-05-08 16:33 -43.88516 -61.95397 37804 ft 436 kts 197°
2026-05-08 16:33 -43.94350 -61.97931 37821 ft 442 kts 197°
2026-05-08 16:34 -44.00217 -62.00513 37827 ft 439 kts 195°
2026-05-08 16:34 -44.05072 -62.02638 37816 ft 434 kts 196°
2026-05-08 16:35 -44.10774 -62.05155 37837 ft 432 kts 196°
2026-05-08 16:35 -44.16513 -62.07676 37820 ft 434 kts 196°
2026-05-08 16:36 -44.22293 -62.10233 37851 ft 437 kts 196°
2026-05-08 16:36 -44.28112 -62.12804 37845 ft 440 kts 197°
2026-05-08 16:37 -44.33962 -62.15398 37868 ft 442 kts 196°
2026-05-08 16:37 -44.39778 -62.17975 37850 ft 435 kts 196°
2026-05-08 16:38 -44.45516 -62.20544 37860 ft 431 kts 196°
2026-05-08 16:38 -44.51224 -62.23084 37893 ft 431 kts 196°
2026-05-08 16:39 -44.56972 -62.25655 37895 ft 435 kts 196°
2026-05-08 16:39 -44.62755 -62.28235 37893 ft 437 kts 196°
2026-05-08 16:40 -44.68513 -62.30820 37897 ft 438 kts 197°
2026-05-08 16:40 -44.74313 -62.33435 37894 ft 435 kts 196°
2026-05-08 16:41 -44.80067 -62.36028 37902 ft 434 kts 196°
2026-05-08 16:42 -44.88618 -62.39888 37885 ft 427 kts 196°
2026-05-08 16:42 -44.94292 -62.42469 37947 ft 430 kts 195°
2026-05-08 16:43 -45.00033 -62.45064 37920 ft 436 kts 197°
2026-05-08 16:43 -45.05843 -62.47712 37947 ft 440 kts 196°
2026-05-08 16:44 -45.11642 -62.50367 37932 ft 435 kts 197°
2026-05-08 16:44 -45.17382 -62.52991 37959 ft 432 kts 196°
2026-05-08 16:45 -45.23089 -62.55609 37946 ft 431 kts 196°
2026-05-08 16:45 -45.28797 -62.58225 37970 ft 433 kts 197°
2026-05-08 16:46 -45.34553 -62.60886 37962 ft 437 kts 197°
2026-05-08 16:46 -45.40325 -62.63542 37976 ft 441 kts 197°
2026-05-08 16:47 -45.46156 -62.66245 37979 ft 440 kts 196°
2026-05-08 16:47 -45.51909 -62.68910 37975 ft 431 kts 197°
2026-05-08 16:48 -45.57610 -62.71539 37978 ft 429 kts 196°
2026-05-08 16:48 -45.63283 -62.74181 37999 ft 430 kts 196°
2026-05-08 16:49 -45.68999 -62.76852 38016 ft 434 kts 195°
2026-05-08 16:49 -45.74721 -62.79573 37978 ft 433 kts 196°
2026-05-08 16:50 -45.80451 -62.82208 38039 ft 434 kts 197°
2026-05-08 16:50 -45.86217 -62.84949 38015 ft 436 kts 196°
2026-05-08 16:51 -45.91923 -62.87599 38020 ft 431 kts 196°
2026-05-08 16:51 -45.97589 -62.90324 38015 ft 428 kts 196°
2026-05-08 16:52 -46.03207 -62.92964 38005 ft 423 kts 196°
2026-05-08 16:52 -46.08818 -62.95606 38056 ft 426 kts 197°
2026-05-08 16:53 -46.17341 -62.99683 38067 ft 434 kts 197°
2026-05-08 16:53 -46.23105 -63.02405 38043 ft 435 kts 196°
2026-05-08 16:54 -46.28821 -63.05126 38025 ft 429 kts 196°
2026-05-08 16:54 -46.34447 -63.07763 38093 ft 425 kts 197°
2026-05-08 16:55 -46.40045 -63.10509 38101 ft 423 kts 196°
2026-05-08 16:55 -46.45603 -63.13175 38026 ft 420 kts 197°
2026-05-08 16:56 -46.51171 -63.15903 38092 ft 425 kts 197°
2026-05-08 16:56 -46.56800 -63.18627 38068 ft 430 kts 197°
2026-05-08 16:57 -46.62512 -63.21343 38094 ft 434 kts 197°
2026-05-08 16:57 -46.68164 -63.24057 38128 ft 418 kts 197°
2026-05-08 16:58 -46.73656 -63.26696 38132 ft 412 kts 197°
2026-05-08 16:58 -46.79030 -63.29390 38086 ft 407 kts 197°
2026-05-08 16:59 -46.84381 -63.31996 38119 ft 406 kts 198°
2026-05-08 16:59 -46.89777 -63.34602 38077 ft 411 kts 197°
2026-05-08 17:00 -46.95192 -63.37323 38121 ft 409 kts 197°
2026-05-08 17:00 -47.00574 -63.39884 38178 ft 407 kts 196°
2026-05-08 17:01 -47.05992 -63.42521 38145 ft 413 kts 197°
2026-05-08 17:01 -47.11469 -63.45266 38166 ft 416 kts 197°
2026-05-08 17:02 -47.16870 -63.47925 38152 ft 404 kts 197°
2026-05-08 17:02 -47.22227 -63.50585 38183 ft 406 kts 197°
2026-05-08 17:03 -47.27562 -63.53229 38154 ft 401 kts 196°
2026-05-08 17:03 -47.32830 -63.55830 38148 ft 401 kts 195°
2026-05-08 17:04 -47.38120 -63.58475 38180 ft 407 kts 198°
2026-05-08 17:04 -47.43467 -63.61192 38190 ft 405 kts 198°
2026-05-08 17:05 -47.48146 -63.63507 38189 ft 405 kts 197°
2026-05-08 17:05 -47.53529 -63.66188 38213 ft 410 kts 197°
2026-05-08 17:06 -47.58976 -63.68937 38200 ft 415 kts 198°
2026-05-08 17:06 -47.64451 -63.71685 38193 ft 416 kts 197°
2026-05-08 17:07 -47.69895 -63.74424 38185 ft 414 kts 197°
2026-05-08 17:07 -47.75319 -63.77167 38208 ft 409 kts 197°
2026-05-08 17:08 -47.80690 -63.79874 38185 ft 407 kts 197°
2026-05-08 17:08 -47.86086 -63.82619 38217 ft 413 kts 197°
2026-05-08 17:09 -47.91540 -63.85404 38219 ft 414 kts 197°
2026-05-08 17:09 -47.97018 -63.88188 38214 ft 417 kts 197°
2026-05-08 17:10 -48.02515 -63.91006 38236 ft 417 kts 197°
2026-05-08 17:10 -48.07935 -63.93788 38219 ft 411 kts 197°
2026-05-08 17:11 -48.13350 -63.96563 38218 ft 412 kts 197°
2026-05-08 17:11 -48.18770 -63.99357 38229 ft 411 kts 197°
2026-05-08 17:12 -48.24171 -64.02139 38252 ft 410 kts 197°
2026-05-08 17:12 -48.29585 -64.04928 38237 ft 412 kts 197°
2026-05-08 17:13 -48.35025 -64.07759 38247 ft 415 kts 197°
2026-05-08 17:13 -48.40478 -64.10582 38257 ft 415 kts 198°
2026-05-08 17:14 -48.45939 -64.13428 38240 ft 416 kts 197°
2026-05-08 17:14 -48.51412 -64.16285 38264 ft 416 kts 197°
2026-05-08 17:15 -48.56890 -64.19145 38262 ft 416 kts 197°
2026-05-08 17:15 -48.62341 -64.22005 38266 ft 413 kts 197°
2026-05-08 17:16 -48.67700 -64.24831 38273 ft 408 kts 197°
2026-05-08 17:16 -48.73057 -64.27646 38277 ft 407 kts 197°
2026-05-08 17:17 -48.78430 -64.30476 38260 ft 411 kts 197°
2026-05-08 17:17 -48.83857 -64.33343 38281 ft 413 kts 197°
2026-05-08 17:18 -48.89286 -64.36222 38289 ft 413 kts 197°
2026-05-08 17:18 -48.94708 -64.39104 38292 ft 413 kts 198°
2026-05-08 17:19 -49.00127 -64.41990 38297 ft 412 kts 198°
2026-05-08 17:19 -49.05539 -64.44879 38302 ft 412 kts 198°
2026-05-08 17:20 -49.10951 -64.47774 38299 ft 411 kts 197°
2026-05-08 17:20 -49.16341 -64.50665 38307 ft 410 kts 197°
2026-05-08 17:21 -49.20817 -64.53070 38310 ft 410 kts 198°
2026-05-08 17:21 -49.26187 -64.55961 38321 ft 409 kts 198°
2026-05-08 17:22 -49.31550 -64.58856 38320 ft 408 kts 198°
2026-05-08 17:22 -49.36902 -64.61752 38331 ft 407 kts 198°
2026-05-08 17:23 -49.42252 -64.64653 38332 ft 407 kts 198°
2026-05-08 17:23 -49.47558 -64.67537 38316 ft 406 kts 197°
2026-05-08 17:24 -49.52886 -64.70440 38337 ft 405 kts 197°
2026-05-08 17:24 -49.58203 -64.73342 38341 ft 405 kts 197°
2026-05-08 17:25 -49.63514 -64.76249 38349 ft 404 kts 197°
2026-05-08 17:25 -49.68788 -64.79142 38344 ft 404 kts 197°
2026-05-08 17:26 -49.74094 -64.82059 38356 ft 404 kts 198°
2026-05-08 17:26 -49.79395 -64.84981 38341 ft 404 kts 198°
2026-05-08 17:27 -49.84686 -64.87904 38352 ft 403 kts 198°
2026-05-08 17:27 -49.89973 -64.90831 38361 ft 403 kts 198°
2026-05-08 17:28 -49.95215 -64.93740 38363 ft 402 kts 198°
2026-05-08 17:28 -50.00495 -64.96677 38363 ft 402 kts 198°
2026-05-08 17:29 -50.05773 -64.99619 38371 ft 402 kts 198°
2026-05-08 17:29 -50.11004 -65.02543 38361 ft 400 kts 198°
2026-05-08 17:30 -50.16234 -65.05473 38371 ft 397 kts 198°
2026-05-08 17:30 -50.21421 -65.08385 38377 ft 396 kts 198°
2026-05-08 17:31 -50.26659 -65.11332 38390 ft 403 kts 198°
2026-05-08 17:31 -50.31955 -65.14317 38395 ft 411 kts 198°
2026-05-08 17:32 -50.37368 -65.17378 38395 ft 415 kts 198°
2026-05-08 17:32 -50.42824 -65.20471 38365 ft 418 kts 199°
2026-05-08 17:33 -50.48231 -65.23546 38379 ft 408 kts 199°
2026-05-08 17:33 -50.53545 -65.26573 38394 ft 405 kts 199°
2026-05-08 17:34 -50.58840 -65.29596 38412 ft 405 kts 199°
2026-05-08 17:34 -50.64149 -65.32634 38404 ft 406 kts 199°
2026-05-08 17:35 -50.69469 -65.35685 38403 ft 407 kts 199°
2026-05-08 17:35 -50.74804 -65.38754 38413 ft 409 kts 199°
2026-05-08 17:36 -50.80150 -65.41835 38394 ft 409 kts 199°
2026-05-08 17:36 -50.85509 -65.44932 38416 ft 410 kts 199°
2026-05-08 17:37 -50.90867 -65.48037 38408 ft 410 kts 199°
2026-05-08 17:37 -50.96199 -65.51133 38413 ft 410 kts 199°
2026-05-08 17:38 -51.01554 -65.54251 38430 ft 410 kts 199°
2026-05-08 17:38 -51.06914 -65.57379 38420 ft 409 kts 199°
2026-05-08 17:39 -51.12273 -65.60514 38402 ft 409 kts 199°
2026-05-08 17:39 -51.17595 -65.63636 38424 ft 407 kts 199°
2026-05-08 17:40 -51.22876 -65.66741 38431 ft 406 kts 199°
2026-05-08 17:40 -51.28178 -65.69866 38431 ft 406 kts 199°
2026-05-08 17:41 -51.33475 -65.72996 38432 ft 405 kts 199°
2026-05-08 17:41 -51.38766 -65.76130 38433 ft 405 kts 199°
2026-05-08 17:42 -51.44053 -65.79269 38440 ft 405 kts 199°
2026-05-08 17:42 -51.49338 -65.82415 38438 ft 405 kts 200°
2026-05-08 17:43 -51.54632 -65.85574 38444 ft 406 kts 200°
2026-05-08 17:43 -51.59940 -65.88750 38443 ft 407 kts 200°
2026-05-08 17:44 -51.65219 -65.91916 38446 ft 408 kts 200°
2026-05-08 17:44 -51.70545 -65.95119 38451 ft 409 kts 200°
2026-05-08 17:45 -51.75877 -65.98332 38462 ft 410 kts 200°
2026-05-08 17:45 -51.81232 -66.01513 38444 ft 410 kts 199°
2026-05-08 17:46 -51.86608 -66.04492 38445 ft 406 kts 198°
2026-05-08 17:46 -51.91943 -66.07425 38447 ft 403 kts 199°
2026-05-08 17:47 -51.97244 -66.10367 38455 ft 401 kts 199°
2026-05-08 17:47 -52.01630 -66.12817 38462 ft 401 kts 199°
2026-05-08 17:48 -52.07767 -66.16259 38469 ft 401 kts 199°
2026-05-08 17:48 -52.13058 -66.19236 38471 ft 404 kts 199°
2026-05-08 17:49 -52.18383 -66.22240 38455 ft 405 kts 199°
2026-05-08 17:49 -52.23725 -66.25260 38473 ft 406 kts 199°
2026-05-08 17:50 -52.29074 -66.28293 38475 ft 408 kts 199°
2026-05-08 17:50 -52.34406 -66.31324 38489 ft 408 kts 199°
2026-05-08 17:51 -52.39773 -66.34382 38481 ft 409 kts 199°
2026-05-08 17:51 -52.45143 -66.37449 38473 ft 409 kts 199°
2026-05-08 17:52 -52.50511 -66.40524 38475 ft 408 kts 199°
2026-05-08 17:53 -52.58483 -66.45105 38468 ft 398 kts 199°
2026-05-08 17:53 -52.63693 -66.48108 38479 ft 396 kts 199°
2026-05-08 17:54 -52.68901 -66.51118 38485 ft 396 kts 200°
2026-05-08 17:54 -52.74105 -66.54134 38481 ft 397 kts 200°
2026-05-08 17:55 -52.79322 -66.57164 38484 ft 398 kts 200°
2026-05-08 17:55 -52.84553 -66.60211 38483 ft 399 kts 200°
2026-05-08 17:56 -52.89762 -66.63252 38463 ft 400 kts 200°
2026-05-08 17:56 -52.94981 -66.66322 38487 ft 395 kts 200°
2026-05-08 17:57 -53.00112 -66.69506 38482 ft 393 kts 201°
2026-05-08 17:57 -53.05220 -66.72727 38483 ft 392 kts 201°
2026-05-08 17:58 -53.10323 -66.75942 38485 ft 392 kts 201°
2026-05-08 17:58 -53.15467 -66.79180 38011 ft 401 kts 201°
2026-05-08 17:58 -53.18085 -66.80829 37451 ft 402 kts 201°
2026-05-08 17:59 -53.20683 -66.82467 37093 ft 396 kts 201°
2026-05-08 17:59 -53.23251 -66.84089 36659 ft 393 kts 200°
2026-05-08 17:59 -53.25806 -66.85704 36276 ft 394 kts 201°
2026-05-08 17:59 -53.28367 -66.87325 35852 ft 392 kts 200°
2026-05-08 18:00 -53.30914 -66.88940 35435 ft 390 kts 200°
2026-05-08 18:00 -53.35956 -66.92141 34615 ft 385 kts 200°
2026-05-08 18:00 -53.38456 -66.93731 34147 ft 383 kts 200°
2026-05-08 18:01 -53.40906 -66.95291 33739 ft 381 kts 200°
2026-05-08 18:01 -53.43383 -66.96870 33301 ft 377 kts 200°
2026-05-08 18:01 -53.45815 -66.98423 32905 ft 371 kts 200°
2026-05-08 18:01 -53.48211 -66.99955 32504 ft 365 kts 200°
2026-05-08 18:02 -53.50570 -67.01465 32093 ft 361 kts 200°
2026-05-08 18:02 -53.52146 -67.02475 31829 ft 357 kts 200°
2026-05-08 18:02 -53.55197 -67.04432 31319 ft 352 kts 200°
2026-05-08 18:02 -53.57474 -67.05893 30950 ft 348 kts 200°
2026-05-08 18:03 -53.59727 -67.07341 30571 ft 345 kts 200°
2026-05-08 18:03 -53.61964 -67.08782 30128 ft 342 kts 200°
2026-05-08 18:03 -53.64172 -67.10208 29751 ft 335 kts 198°
2026-05-08 18:03 -53.66324 -67.11600 29407 ft 328 kts 198°
2026-05-08 18:04 -53.68438 -67.12967 29066 ft 322 kts 198°
2026-05-08 18:04 -53.70515 -67.14310 28704 ft 317 kts 198°
2026-05-08 18:04 -53.72561 -67.15634 28351 ft 313 kts 198°
2026-05-08 18:04 -53.74582 -67.16943 27984 ft 309 kts 198°
2026-05-08 18:05 -53.76580 -67.18239 27638 ft 305 kts 198°
2026-05-08 18:05 -53.78550 -67.19517 27268 ft 302 kts 198°
2026-05-08 18:05 -53.80501 -67.20784 26936 ft 299 kts 198°
2026-05-08 18:05 -53.82436 -67.22043 26585 ft 296 kts 198°
2026-05-08 18:06 -53.84352 -67.23291 26242 ft 294 kts 198°
2026-05-08 18:06 -53.86254 -67.24530 25907 ft 292 kts 198°
2026-05-08 18:06 -53.88118 -67.25746 25581 ft 291 kts 198°
2026-05-08 18:06 -53.90006 -67.26978 25250 ft 290 kts 198°
2026-05-08 18:07 -53.91896 -67.28213 24925 ft 293 kts 198°
2026-05-08 18:07 -53.93836 -67.29479 24595 ft 305 kts 198°
2026-05-08 18:07 -53.95845 -67.30791 24237 ft 312 kts 198°
2026-05-08 18:07 -53.97871 -67.32119 23829 ft 311 kts 198°
2026-05-08 18:08 -53.99885 -67.33444 23413 ft 309 kts 198°
2026-05-08 18:08 -54.01875 -67.34754 23077 ft 305 kts 198°
2026-05-08 18:08 -54.03845 -67.36052 22718 ft 302 kts 198°
2026-05-08 18:08 -54.05793 -67.37336 22362 ft 299 kts 198°
2026-05-08 18:09 -54.07730 -67.38613 22027 ft 297 kts 198°
2026-05-08 18:09 -54.09648 -67.39879 21685 ft 294 kts 198°
2026-05-08 18:09 -54.10910 -67.40712 21451 ft 293 kts 198°
2026-05-08 18:09 -54.12808 -67.41966 21131 ft 291 kts 198°
2026-05-08 18:10 -54.15302 -67.43616 20692 ft 289 kts 198°
2026-05-08 18:10 -54.16565 -67.44452 20477 ft 288 kts 198°
2026-05-08 18:10 -54.19034 -67.46089 20044 ft 287 kts 199°
2026-05-08 18:10 -54.20294 -67.46924 19833 ft 290 kts 199°
2026-05-08 18:11 -54.22226 -67.48204 19514 ft 302 kts 199°
2026-05-08 18:11 -54.24191 -67.49509 19143 ft 304 kts 199°
2026-05-08 18:11 -54.26160 -67.50820 18793 ft 303 kts 199°
2026-05-08 18:11 -54.28116 -67.52125 18395 ft 302 kts 199°
2026-05-08 18:12 -54.30067 -67.53427 18020 ft 300 kts 199°
2026-05-08 18:12 -54.32007 -67.54723 17661 ft 298 kts 199°
2026-05-08 18:12 -54.33935 -67.56011 17305 ft 296 kts 199°
2026-05-08 18:12 -54.35853 -67.57295 16973 ft 295 kts 199°
2026-05-08 18:13 -54.37759 -67.58571 16608 ft 294 kts 200°
2026-05-08 18:13 -54.39634 -67.59828 16273 ft 293 kts 200°
2026-05-08 18:13 -54.41526 -67.61097 15938 ft 292 kts 200°
2026-05-08 18:13 -54.43415 -67.62365 15613 ft 291 kts 200°
2026-05-08 18:14 -54.45296 -67.63629 15286 ft 290 kts 200°
2026-05-08 18:14 -54.47174 -67.64893 14967 ft 289 kts 200°
2026-05-08 18:14 -54.49044 -67.66149 14656 ft 288 kts 199°
2026-05-08 18:14 -54.51001 -67.66795 14202 ft 291 kts 177°
2026-05-08 18:15 -54.53041 -67.66544 13715 ft 296 kts 175°
2026-05-08 18:15 -54.55109 -67.66275 13173 ft 301 kts 175°
2026-05-08 18:15 -54.57214 -67.66014 12660 ft 304 kts 175°
2026-05-08 18:15 -54.59337 -67.65764 12149 ft 307 kts 176°
2026-05-08 18:16 -54.61480 -67.65520 11635 ft 310 kts 176°
2026-05-08 18:16 -54.63642 -67.65276 11113 ft 313 kts 176°
2026-05-08 18:16 -54.65826 -67.65032 10596 ft 316 kts 176°
2026-05-08 18:16 -54.67990 -67.64788 10331 ft 309 kts 176°
2026-05-08 18:17 -54.70108 -67.64549 10258 ft 292 kts 176°
2026-05-08 18:17 -54.72081 -67.64325 10095 ft 276 kts 176°
2026-05-08 18:17 -54.73978 -67.64113 9696 ft 271 kts 176°
2026-05-08 18:17 -54.75835 -67.63911 9193 ft 272 kts 177°
2026-05-08 18:18 -54.77713 -67.63709 8732 ft 269 kts 178°
2026-05-08 18:18 -54.79496 -67.64164 8562 ft 252 kts 207°
2026-05-08 18:18 -54.80908 -67.65810 8320 ft 241 kts 226°
2026-05-08 18:18 -54.81742 -67.68143 8210 ft 221 kts 257°
2026-05-08 18:19 -54.81974 -67.70736 7778 ft 218 kts 266°
2026-05-08 18:19 -54.82087 -67.73378 7227 ft 221 kts 268°
2026-05-08 18:19 -54.82180 -67.76034 6741 ft 220 kts 267°
2026-05-08 18:19 -54.82279 -67.78677 6288 ft 217 kts 267°
2026-05-08 18:20 -54.82409 -67.81265 5866 ft 212 kts 263°
2026-05-08 18:20 -54.82594 -67.83731 5581 ft 200 kts 264°
2026-05-08 18:20 -54.82722 -67.86071 5344 ft 191 kts 266°
2026-05-08 18:20 -54.82815 -67.88314 5185 ft 182 kts 266°
2026-05-08 18:21 -54.82893 -67.90403 5124 ft 172 kts 267°
2026-05-08 18:21 -54.82969 -67.92522 4910 ft 179 kts 267°
2026-05-08 18:21 -54.83045 -67.94711 4587 ft 181 kts 267°
2026-05-08 18:21 -54.83123 -67.96882 4292 ft 180 kts 268°
2026-05-08 18:22 -54.83199 -67.99033 4007 ft 178 kts 268°
2026-05-08 18:22 -54.83275 -68.01163 3736 ft 176 kts 268°
2026-05-08 18:22 -54.83351 -68.03230 3441 ft 166 kts 268°
2026-05-08 18:22 -54.83421 -68.05182 3153 ft 157 kts 268°
2026-05-08 18:23 -54.83487 -68.07051 2907 ft 154 kts 268°
2026-05-08 18:23 -54.83556 -68.08915 2641 ft 156 kts 268°
2026-05-08 18:23 -54.83625 -68.10797 2339 ft 156 kts 268°
2026-05-08 18:23 -54.83693 -68.12647 2093 ft 150 kts 268°
2026-05-08 18:24 -54.83759 -68.14442 1802 ft 151 kts 268°
2026-05-08 18:24 -54.83826 -68.16237 1561 ft 148 kts 268°
2026-05-08 18:24 -54.83893 -68.18016 1346 ft 148 kts 269°
2026-05-08 18:24 -54.83958 -68.19785 1137 ft 146 kts 268°
2026-05-08 18:25 -54.84025 -68.21543 914 ft 145 kts 268°
2026-05-08 18:25 -54.84091 -68.23287 736 ft 145 kts 268°
2026-05-08 18:25 -54.84159 -68.25043 490 ft 145 kts 268°
2026-05-08 18:25 -54.84224 -68.26802 229 ft 148 kts 269°
2026-05-08 18:26 -54.84289 -68.28541 84 ft 138 kts 267°
2026-05-08 18:26 -54.84347 -68.30015 82 ft 101 kts 266°
2026-05-08 18:26 -54.84378 -68.30822 107 ft 26 kts 266°
2026-05-08 18:26 -54.84347 -68.30952 85 ft 12 kts 339°
2026-05-08 18:27 -54.84277 -68.30960 84 ft 8 kts 358°
2026-05-08 18:27 -54.84248 -68.30961 85 ft 4 kts 358°
2026-05-08 18:27 -54.84215 -68.30966 85 ft 4 kts 353°
2026-05-08 18:27 -54.84175 -68.30974 84 ft 10 kts 353°
2026-05-08 18:28 -54.84101 -68.31007 83 ft 11 kts 310°
2026-05-08 18:28 -54.84093 -68.31108 82 ft 7 kts 268°
2026-05-08 18:28 -54.84072 -68.31159 84 ft 6 kts 344°
2026-05-08 18:28 -54.84037 -68.31172 84 ft 4 kts 348°
2026-05-08 18:29 -54.84028 -68.31176 84 ft 1 kts 348°
2026-05-08 18:29 -54.84027 -68.31176 84 ft 0 kts 348°